Regional Weather Roundup
Issued by NWS

Home | Current Version | Previous Version | Graphics & Text | Print | Product List | Glossary On
Versions: 1 2 3 4 5 6 7 8 9 10 11 12 13 14 15 16 17 18 19 20 21 22 23 24 25 26 27 28 29 30 31 32 33 34 35 36 37 38 39 40 41 42 43 44 45 46 47 48 49 50
000
ASUS45 KTFX 261304
RWRMT
MONTANA HOURLY WEATHER ROUNDUP
NATIONAL WEATHER SERVICE GREAT FALLS MT
704 AM MDT SAT JUL 26 2014

NOTE: "FAIR" INDICATES FEW OR NO CLOUDS BELOW 12000 FEET WITH NO
SIGNIFICANT WEATHER AND/OR OBSTRUCTIONS TO VISIBILITY.

* THESE STATIONS ARE NOT UNDER NWS QUALITY CONTROL. THEY DO NOT
   REPORT WEATHER SUCH AS PRECIPITATION OR FOG.

MTZ001>007-043-261400-
WEST OF THE DIVIDE
CITY           SKY/WX    TMP DP  RH WIND       PRES   REMARKS
KALISPELL      CLEAR     43  41  93 CALM      30.17R
MISSOULA       CLEAR     48  41  77 CALM      30.21R
BUTTE          CLEAR     37  30  76 CALM      30.27R
MULLAN PASS    CLEAR     52  36  55 CALM      30.25S
* ESSEX        N/A       45  42  89 E3         N/A
* LINCOLN      N/A       37  36  96 SE1        N/A
* LOOKOUT PASS N/A       45  40  83 S2         N/A
* POLSON       N/A       50  41  71 SE2        N/A
* RONAN APT    CLEAR     43  41  93 N/A        N/A
* SEELEY LAKE  N/A       35  33  92 N/A        N/A
* THOMP F APT  CLEAR     55  25  31 NW4G21     N/A
$$

MTZ008-052>055-261400-
SOUTHWEST MONTANA
CITY           SKY/WX    TMP DP  RH WIND       PRES   REMARKS
BOZEMAN        CLEAR     45  37  74 SE7       30.22R
DILLON         CLEAR     43  34  71 SW6       30.23R
W YELLOWSTONE  CLEAR     34  28  79 CALM      30.31R
* THREE FORKS  CLEAR     43  43 100 N/A        N/A
* BOULDER HILL N/A       50  31  48 S5         N/A
* MONIDA PASS  N/A       42  24  49 SW2        N/A
* RAYNOLDS PAS N/A       42  27  55 N/A        N/A
* WHITEHALL    N/A       45  37  74 E1G6       N/A
* WISE RIVER   N/A       36  28  73 W3         N/A
$$

MTZ009>010-012-014-046-048-049-054-261400-
EAST SLOPES AND CENTRAL MONTANA
CITY           SKY/WX    TMP DP  RH WIND       PRES   REMARKS
CUT BANK       CLEAR     45  41  86 W3        30.16R
GREAT FALLS    CLEAR     50  39  66 SW6       30.13R
HELENA         CLEAR     57  39  51 CALM      30.18R
* CONRAD       CLEAR     39  39 100 N/A        N/A
* DEARBORN     N/A       49  38  66 N/A        N/A
* EAST GLACIER N/A       50  37  61 W9         N/A
* MONARCH      N/A       44  33  65 S6         N/A
* ROGERS PASS  N/A       47  37  68 SW1        N/A
* SAINT MARY   N/A       54  38  55 S5G12      N/A
* SWEET GRASS  N/A       48  47  96 W9         N/A
$$

MTZ011-013-016-021-035-040-045-047-050-051-261400-
NORTH CENTRAL MONTANA
CITY           SKY/WX    TMP DP  RH WIND       PRES   REMARKS
HAVRE          PTCLDY    52  46  80 SW12      30.09R
LEWISTOWN      CLEAR     50  45  83 SW6       30.17R
* CHESTER      N/A       47  42  83 N2         N/A
* DENTON       N/A       49  47  93 S6         N/A
* JUDITH GAP   N/A       46  44  93 NW4        N/A
* LOMA         N/A       49  45  86 W3         N/A
$$

MTZ017>020-022>027-061-062-261400-
NORTHEAST MONTANA
CITY           SKY/WX    TMP DP  RH WIND       PRES   REMARKS
GLASGOW        CLOUDY    57  48  72 W17       29.98R
GLENDIVE       CLEAR     57  48  72 W15G21    30.00S
JORDAN         CLEAR     57  45  64 W12       30.04R
SIDNEY         CLEAR     59  48  67 W17G25    29.94S
WOLF POINT     CLOUDY    61  48  62 W18G23    29.96R
* BEAVER HILL  N/A       58  47  67 W17G24     N/A
* CIRCLE       N/A       55  49  80 SW6        N/A
* LINDSAY DVD  N/A       56  47  72 W20G26     N/A
* NAVAJO       N/A       56  50  80 W23G33     N/A
$$

MTZ028>042-056>058-261400-
SOUTHCENTRAL AND SOUTHEAST MONTANA
CITY           SKY/WX    TMP DP  RH WIND       PRES   REMARKS
BAKER          CLEAR     57  46  67 W13       30.03R
BILLINGS       CLEAR     61  36  39 W3        30.14R
LIVINGSTON     CLEAR     52  36  55 W8        30.20R
MILES CITY     CLEAR     57  46  67 W8        30.06R
* LAUREL APT   CLEAR     55  37  51 N/A        N/A
* ROUNDUP APT  CLEAR     52  36  55 N/A        N/A
* ALZADA       N/A       52  43  72 W2         N/A
* HYSHAM       N/A       58  44  60 W3         N/A
* LAME DEER    N/A       55  43  64 NW3        N/A
* REED POINT   N/A       48  39  71 NW1        N/A
* ROSCOE HILL  N/A       58  30  35 SW4        N/A
$$

REGIONAL REPORTS...DAKOTAS
CITY           SKY/WX    TMP DP  RH WIND       PRES   REMARKS
WILLISTON      CLEAR     61  50  67 W20       29.89R
DICKINSON      CLEAR     59  48  67 W12       29.94R
CROSBY         CLOUDY    57  55  93 W21G30    29.82S
TIOGA          CLEAR     57  57 100 W20G28    29.88R
WATFORD CITY   CLEAR     57  50  78 W18G24    29.89R
BISMARCK       CLEAR     63  50  63 W15       29.89R
GRAND FORKS    CLEAR     64  57  78 S7        29.74R
FARGO          CLEAR     64  57  78 S7        29.78R
BUFFALO SD     CLEAR     59  45  60 NW18      29.96R
RAPID CITY     CLEAR     64  46  52 NW21G32   30.01R
$$

REGIONAL REPORTS...WYOMING/IDAHO/WASHINGTON
CITY           SKY/WX    TMP DP  RH WIND       PRES   REMARKS
GILLETTE       CLEAR     59  34  39 NW3       30.14R
SHERIDAN       CLEAR     55  39  55 SE3       30.14R
YELLOWSTONE LA CLEAR     36  28  73 CALM      30.38R
SALMON         PTCLDY    45  34  65 CALM      30.21R
MULLAN PASS    CLEAR     52  36  55 CALM      30.25S
SAND POINT     CLEAR     45  45 100 CALM      30.15R
SPOKANE        FAIR      55  43  64 E3        30.13R

$$




USA.gov is the U.S. government's official web portal to all federal, state and local government web resources and services.